W8APS Weather Reports


time (UTC)temp
F
wind
direction
speed
knots
gust
knots
rain 1hr
in
rain 24hr
in
rain mn
in
humidity
%
barometer
mb
20260905135518 68 15 1.7 5.2 0.00 0.06 0.00 82 1016.2
20260905135017 68 58 2.6 5.2 0.00 0.06 0.00 82 1016.3
20260905134536 68 347 0.9 5.2 0.00 0.06 0.00 82 1016.3
20260905134018 68 0 1.7 6.1 0.00 0.06 0.00 82 1016.4
20260905133520 68 18 1.7 6.1 0.00 0.06 0.00 82 1016.4
20260905133040 68 35 1.7 5.2 0.00 0.06 0.00 82 1016.2
20260905132519 68 56 0.9 5.2 0.00 0.06 0.00 82 1016.3
20260905132022 68 0 1.7 5.2 0.00 0.06 0.00 82 1016.5
20260905131547 68 26 1.7 3.5 0.00 0.06 0.00 82 1016.5
20260905131024 68 331 0.0 6.1 0.00 0.06 0.00 83 1016.5
20260905130519 68 0 0.9 6.1 0.00 0.06 0.00 83 1016.4
20260905130037 67 81 0.0 6.1 0.00 0.06 0.00 83 1016.2
20260905125517 67 59 1.7 4.3 0.00 0.09 0.00 83 1016.2
20260905125020 67 0 0.0 3.5 0.00 0.09 0.00 84 1016.1
20260905124542 67 0 0.9 3.5 0.00 0.09 0.00 83 1016.4
20260905124023 67 26 0.9 3.5 0.00 0.09 0.00 84 1016.4
20260905123517 67 0 0.0 1.7 0.00 0.09 0.00 85 1016.4
20260905123036 67 0 0.0 3.5 0.00 0.09 0.00 86 1016.4
20260905122519 67 0 0.0 6.1 0.00 0.09 0.00 87 1016.2
20260905122018 66 70 0.0 6.1 0.00 0.09 0.00 88 1016.2
20260905121538 66 40 1.7 6.1 0.00 0.09 0.00 88 1015.9
20260905121023 66 0 0.9 6.1 0.00 0.09 0.00 89 1015.9
20260905120518 66 79 1.7 6.1 0.00 0.09 0.00 89 1016.1
20260905120038 66 64 0.0 7.0 0.00 0.09 0.00 90 1016.1
20260905115518 66 0 0.9 7.0 0.00 0.09 0.00 91 1016.0
20260905115018 66 52 0.9 4.3 0.00 0.09 0.00 91 1016.0
20260905114543 66 0 0.0 4.3 0.00 0.09 0.00 92 1016.0
20260905114020 66 0 0.9 4.3 0.00 0.09 0.00 92 1016.0
20260905113521 66 9 0.9 5.2 0.00 0.09 0.00 92 1015.9
20260905113039 66 336 1.7 5.2 0.00 0.09 0.00 92 1016.0
20260905112518 66 45 1.7 6.1 0.00 0.09 0.00 92 1015.9
20260905112018 66 23 1.7 6.1 0.00 0.09 0.00 92 1015.8
20260905111542 66 13 1.7 6.1 0.00 0.09 0.00 92 1015.8
20260905111015 66 45 1.7 3.5 0.00 0.09 0.00 92 1015.9
20260905110517 66 13 0.0 2.6 0.00 0.09 0.00 92 1015.7
20260905110038 66 0 0.0 3.5 0.00 0.09 0.00 92 1015.7
20260905105518 66 306 0.0 3.5 0.00 0.09 0.00 92 1015.8
20260905105018 66 11 0.0 3.5 0.00 0.09 0.00 92 1015.7
20260905104537 66 0 0.9 3.5 0.00 0.09 0.00 91 1015.8
20260905104018 66 0 0.0 3.5 0.00 0.09 0.00 92 1015.9
20260905103517 66 0 0.0 3.5 0.00 0.09 0.00 92 1015.8
20260905103036 66 102 0.0 4.3 0.00 0.09 0.00 92 1015.8
20260905102519 66 0 0.0 4.3 0.00 0.09 0.00 92 1015.7
20260905102021 66 0 0.0 3.5 0.00 0.09 0.00 92 1015.6
20260905101543 66 0 0.0 3.5 0.00 0.09 0.00 92 1015.6
20260905101017 66 0 0.0 2.6 0.00 0.09 0.00 92 1015.5
20260905100518 66 2 0.9 2.6 0.00 0.09 0.00 93 1015.4
20260905100040 66 0 0.0 3.5 0.00 0.09 0.00 93 1015.4
20260905095516 66 0 0.0 4.3 0.00 0.09 0.00 93 1015.4
20260905095019 66 352 0.9 4.3 0.00 0.09 0.00 93 1015.5
20260905094537 66 67 0.0 3.5 0.00 0.09 0.00 93 1015.4
20260905094019 66 49 0.9 3.5 0.00 0.09 0.00 93 1015.6
20260905093520 66 0 0.9 3.5 0.00 0.09 0.00 93 1015.7
20260905093039 66 23 0.0 1.7 0.00 0.09 0.00 93 1015.8
20260905092516 66 0 0.0 1.7 0.00 0.09 0.00 93 1015.9
20260905092017 66 17 0.9 3.5 0.00 0.09 0.00 94 1015.8
20260905091535 66 0 0.0 3.5 0.00 0.09 0.00 94 1015.7
20260905091017 66 23 1.7 2.6 0.00 0.09 0.00 94 1015.7
20260905090519 66 0 0.0 0.9 0.00 0.09 0.00 94 1015.6
20260905090039 66 0 0.0 1.7 0.00 0.09 0.00 94 1015.5
20260905085517 66 0 0.0 1.7 0.00 0.10 0.00 94 1015.3
20260905085021 66 32 0.0 1.7 0.00 0.10 0.00 94 1015.3
20260905084541 66 359 0.0 2.6 0.00 0.10 0.00 94 1015.3
20260905084021 66 0 0.0 2.6 0.00 0.10 0.00 94 1015.2
20260905083519 66 0 0.9 2.6 0.00 0.10 0.00 94 1015.2
20260905083039 66 0 0.0 4.3 0.00 0.10 0.00 93 1015.0
20260905082517 66 0 0.9 4.3 0.00 0.10 0.00 93 1015.0
20260905082021 66 26 1.7 3.5 0.00 0.10 0.00 93 1015.0
20260905081534 66 0 0.0 2.6 0.00 0.10 0.00 93 1014.9
20260905081016 66 0 0.0 3.5 0.00 0.10 0.00 93 1015.0
20260905080516 66 35 1.7 3.5 0.00 0.10 0.00 93 1015.0
20260905080044 66 16 0.0 2.6 0.00 0.10 0.00 93 1015.0
20260905075519 66 0 0.0 2.6 0.00 0.10 0.00 93 1015.1
20260905075017 66 0 0.0 1.7 0.00 0.10 0.00 93 1015.4
20260905074538 66 0 0.0 1.7 0.00 0.10 0.00 93 1015.5
20260905074020 66 76 0.0 1.7 0.00 0.10 0.00 93 1015.4
20260905073521 66 0 0.0 2.6 0.00 0.10 0.00 93 1015.5
20260905073036 66 0 0.0 2.6 0.00 0.10 0.00 93 1015.3
20260905072518 66 13 0.0 2.6 0.00 0.10 0.00 93 1015.0
20260905072017 66 0 0.0 2.6 0.00 0.10 0.00 93 1014.9
20260905071535 66 0 0.0 2.6 0.00 0.10 0.00 93 1015.0
20260905071018 66 0 0.0 1.7 0.00 0.10 0.00 93 1015.1
20260905070516 66 0 0.0 1.7 0.00 0.10 0.00 93 1015.2
20260905070038 66 0 0.0 1.7 0.00 0.10 0.00 93 1015.1
20260905065518 66 336 0.0 0.9 0.00 0.10 0.00 93 1015.1
20260905065020 66 0 0.0 0.9 0.00 0.10 0.00 93 1014.7
20260905064538 66 0 0.0 2.6 0.00 0.10 0.00 93 1014.7
20260905064021 66 0 0.0 3.5 0.00 0.10 0.00 93 1014.8
20260905063520 66 342 0.9 3.5 0.00 0.10 0.00 93 1014.7
20260905063043 66 327 0.9 3.5 0.00 0.10 0.00 92 1014.8
20260905062520 66 6 0.9 4.3 0.00 0.10 0.00 92 1014.9
20260905062017 66 0 0.9 4.3 0.00 0.10 0.00 92 1015.0
20260905061540 66 25 0.0 5.2 0.00 0.10 0.00 91 1015.2
20260905061017 67 0 0.9 5.2 0.00 0.10 0.00 91 1015.2
20260905060520 67 37 0.9 3.5 0.00 0.10 0.00 91 1015.2
20260905060038 67 51 0.0 2.6 0.00 0.10 0.00 92 1015.2
20260905055517 67 0 0.0 2.6 0.00 0.10 0.00 92 1015.4
20260905055016 67 23 0.0 3.5 0.00 0.10 0.00 92 1015.6
20260905054535 67 18 0.9 3.5 0.00 0.10 0.00 92 1015.6
20260905054017 67 22 0.0 2.6 0.00 0.10 0.00 92 1015.8
20260905053519 67 0 0.0 0.9 0.00 0.10 0.00 93 1015.7
20260905053038 67 0 0.0 0.9 0.00 0.10 0.00 93 1015.7
20260905052522 67 0 0.0 1.7 0.00 0.10 0.00 93 1015.6
20260905052017 67 0 0.0 1.7 0.00 0.10 0.00 93 1015.5
20260905051537 67 0 0.0 2.6 0.00 0.10 0.00 94 1015.5
20260905051017 67 315 0.9 2.6 0.00 0.10 0.00 94 1015.4
20260905050522 67 18 0.0 0.9 0.00 0.10 0.00 94 1015.4
20260905050034 67 0 0.0 2.6 0.00 0.10 0.00 94 1015.4
20260905045516 67 0 0.0 2.6 0.00 0.10 0.00 94 1015.4
20260905045016 67 56 0.0 2.6 0.00 0.10 0.00 94 1015.4
20260905044541 67 0 0.0 1.7 0.00 0.10 0.00 94 1015.5
20260905044016 67 0 0.0 1.7 0.00 0.10 0.00 94 1015.5
20260905043517 67 0 0.0 0.9 0.00 0.10 0.00 94 1015.5
20260905043038 67 0 0.0 0.0 0.00 0.10 0.00 94 1015.6
20260905042519 67 0 0.0 0.9 0.00 0.10 0.00 93 1015.5
20260905042020 68 0 0.0 0.9 0.00 0.10 0.00 93 1015.6
20260905041537 68 0 0.0 0.9 0.00 0.10 0.00 93 1015.6
20260905041020 68 0 0.0 2.6 0.00 0.10 0.00 93 1015.6
20260905040517 68 0 0.9 2.6 0.00 0.10 0.00 93 1015.7
20260905040033 68 0 0.0 2.6 0.00 0.10 0.00 93 1015.7
20260905035517 68 0 0.0 2.6 0.00 0.10 0.10 93 1015.7
20260905035017 68 82 0.0 2.6 0.00 0.10 0.10 93 1015.7
20260905034536 68 94 0.0 1.7 0.00 0.10 0.10 92 1015.8
20260905034018 69 0 0.0 1.7 0.00 0.10 0.10 92 1015.9
20260905033516 69 0 0.0 1.7 0.00 0.10 0.10 92 1016.0
20260905033038 69 0 0.0 1.7 0.00 0.10 0.10 92 1016.0
20260905032519 69 0 0.0 2.6 0.00 0.10 0.10 92 1016.0
20260905032017 69 5 0.9 4.3 0.00 0.10 0.10 92 1016.2
20260905031534 69 0 0.0 4.3 0.00 0.10 0.10 92 1016.4
20260905031017 69 10 1.7 4.3 0.00 0.10 0.10 92 1016.4
20260905030520 69 0 0.9 3.5 0.00 0.10 0.10 92 1016.4
20260905030040 69 0 0.0 2.6 0.00 0.10 0.10 92 1016.4
20260905025520 70 2 0.0 3.5 0.00 0.10 0.10 92 1016.3
20260905025023 70 0 0.0 4.3 0.00 0.10 0.10 92 1016.2
20260905024536 70 16 0.9 4.3 0.00 0.10 0.10 92 1016.2
20260905024019 70 68 0.0 2.6 0.00 0.10 0.10 93 1016.1
20260905023518 70 53 0.0 1.7 0.00 0.10 0.10 93 1016.1
20260905023037 70 45 0.0 1.7 0.00 0.10 0.10 93 1016.1
20260905022517 70 0 0.0 2.6 0.00 0.10 0.10 93 1016.1
20260905022017 70 0 0.0 2.6 0.00 0.10 0.10 93 1016.1
20260905021537 70 2 0.9 2.6 0.00 0.10 0.10 93 1016.2
20260905021015 70 0 0.0 2.6 0.00 0.10 0.10 92 1016.2
20260905020520 70 68 0.9 3.5 0.00 0.10 0.10 92 1016.1
20260905020055 70 4 1.7 3.5 0.00 0.10 0.10 92 1016.2
20260905015520 70 0 0.9 3.5 0.00 0.10 0.10 93 1016.2
20260905015018 70 67 0.9 2.6 0.00 0.10 0.10 93 1016.2
20260905014538 70 64 0.0 2.6 0.00 0.10 0.10 93 1016.4
20260905014018 70 0 0.0 3.5 0.00 0.10 0.10 93 1016.4
20260905013518 70 0 1.7 3.5 0.00 0.10 0.10 93 1016.3
20260905013041 71 0 0.0 4.3 0.00 0.10 0.10 93 1016.2
20260905012519 71 65 0.9 5.2 0.00 0.10 0.10 93 1016.2
20260905012017 71 30 0.9 6.1 0.00 0.10 0.10 93 1016.2
20260905011537 71 49 1.7 6.1 0.00 0.10 0.10 92 1016.2
20260905011018 71 102 2.6 6.1 0.00 0.10 0.10 92 1016.1
20260905010517 72 72 0.9 6.1 0.00 0.10 0.10 92 1016.0
20260905010040 72 9 0.9 6.1 0.00 0.10 0.10 92 1015.9
20260905005519 72 0 0.9 5.2 0.00 0.10 0.10 92 1015.8
20260905005022 72 11 1.7 7.0 0.00 0.10 0.10 91 1015.7
20260905004548 73 353 0.0 7.0 0.00 0.10 0.10 91 1015.8
20260905004020 73 8 2.6 7.0 0.00 0.10 0.10 90 1015.8
20260905003519 74 0 0.9 9.6 0.00 0.10 0.10 90 1015.8
20260905003034 74 15 1.7 9.6 0.00 0.10 0.10 89 1015.6
20260905002520 75 349 0.0 2.6 0.00 0.10 0.10 88 1015.7
20260905002022 75 0 0.0 0.0 0.00 0.10 0.10 87 1015.6
20260905001532 75 0 0.0 0.0 0.00 0.10 0.10 87 1015.6
20260905001017 75 0 0.0 0.0 0.00 0.10 0.10 87 1015.4
20260905000523 75 0 0.0 0.0 0.00 0.10 0.10 86 1015.4
20260905000035 76 0 0.0 0.0 0.00 0.10 0.10 86 1015.4
20260904235517 76 0 0.0 0.0 0.00 0.10 0.10 86 1015.4
20260904235020 76 0 0.0 0.0 0.00 0.10 0.10 85 1015.5
20260904234539 76 0 0.0 0.0 0.00 0.10 0.10 85 1015.4
20260904234018 76 0 0.0 0.0 0.00 0.10 0.10 85 1015.5
20260904233516 76 0 0.0 0.0 0.00 0.10 0.10 84 1015.4
20260904233049 76 0 0.0 0.0 0.00 0.10 0.10 84 1015.2
20260904232520 76 0 0.0 0.0 0.00 0.10 0.10 83 1015.2
20260904232015 76 0 0.0 0.0 0.00 0.10 0.10 84 1015.1
20260904231536 76 0 0.0 0.9 0.00 0.10 0.10 84 1015.1
20260904231017 76 0 0.0 0.9 0.00 0.10 0.10 83 1015.0
20260904230522 76 0 0.0 0.9 0.00 0.10 0.10 83 1015.0
20260904230040 76 0 0.0 0.9 0.00 0.10 0.10 82 1015.0
20260904225518 77 0 0.0 0.9 0.00 0.10 0.10 83 1014.8
20260904225017 77 0 0.0 0.9 0.00 0.10 0.10 82 1014.7
20260904224537 77 0 0.0 0.9 0.00 0.10 0.10 82 1014.7
20260904224016 77 0 0.0 1.7 0.00 0.10 0.10 82 1014.6
20260904223518 77 0 0.0 1.7 0.00 0.10 0.10 82 1014.6
20260904223035 77 0 0.0 2.6 0.00 0.10 0.10 81 1014.6
20260904222522 77 0 0.0 2.6 0.00 0.10 0.10 81 1014.6
20260904222016 77 0 0.0 2.6 0.00 0.10 0.10 82 1014.7
20260904221539 77 0 0.0 2.6 0.00 0.10 0.10 81 1014.6
20260904221017 77 0 0.0 2.6 0.00 0.10 0.10 81 1014.6
20260904220518 77 0 0.0 2.6 0.00 0.10 0.10 80 1014.6
20260904220038 77 0 0.0 4.3 0.00 0.10 0.10 80 1014.6
20260904215521 77 267 0.9 4.3 0.00 0.10 0.10 81 1014.6
20260904215021 77 0 0.9 4.3 0.00 0.10 0.10 80 1014.6
20260904214538 77 0 0.9 5.2 0.00 0.10 0.10 80 1014.6
20260904214019 77 334 0.9 5.2 0.00 0.10 0.10 79 1014.4
20260904213520 77 262 0.0 4.3 0.00 0.10 0.10 80 1014.4
20260904213036 77 295 0.9 4.3 0.00 0.10 0.10 80 1014.5
20260904212517 78 271 0.0 2.6 0.00 0.10 0.10 80 1014.1
20260904212020 78 299 0.0 2.6 0.00 0.10 0.10 80 1014.2
20260904211534 78 285 0.0 4.3 0.00 0.10 0.10 80 1014.3
20260904211019 77 263 0.0 4.3 0.00 0.10 0.10 80 1014.4
20260904210516 77 0 0.0 5.2 0.00 0.10 0.10 80 1014.3
20260904210041 77 0 1.7 7.8 0.00 0.10 0.10 80 1014.4
20260904205522 77 274 1.7 7.8 0.00 0.15 0.10 80 1014.3
20260904205018 78 245 0.0 7.0 0.00 0.15 0.10 79 1014.3
20260904204535 78 243 1.7 7.0 0.00 0.15 0.10 79 1014.2
20260904204020 78 217 2.6 7.8 0.00 0.15 0.10 79 1014.1
20260904203517 77 251 3.5 7.8 0.00 0.15 0.10 78 1014.0
20260904203035 78 209 4.3 7.0 0.00 0.15 0.10 78 1014.1
20260904202519 78 264 0.9 4.3 0.00 0.15 0.10 78 1014.0
20260904202022 77 0 1.7 4.3 0.00 0.15 0.10 80 1013.9
20260904201540 78 273 0.9 4.3 0.00 0.15 0.10 80 1014.0
20260904201019 77 267 0.9 6.1 0.00 0.15 0.10 81 1014.1
20260904200522 77 0 0.0 6.1 0.00 0.15 0.10 83 1014.2
20260904200035 77 212 1.7 5.2 0.00 0.15 0.10 81 1014.3
20260904195522 77 0 0.9 5.2 0.00 0.36 0.10 82 1014.3
20260904195019 77 0 0.0 4.3 0.00 0.36 0.10 83 1014.3
20260904194537 77 0 0.9 4.3 0.00 0.36 0.10 82 1014.4
20260904194017 77 0 0.0 4.3 0.00 0.36 0.10 84 1014.5
20260904193518 76 0 1.7 4.3 0.00 0.36 0.10 84 1014.6
20260904193034 76 245 0.9 3.5 0.00 0.36 0.10 84 1014.7
20260904192523 76 148 0.0 6.1 0.00 0.36 0.10 86 1014.8
20260904192017 76 238 1.7 6.1 0.00 0.36 0.10 87 1014.9
20260904191539 75 245 2.6 5.2 0.00 0.36 0.10 87 1014.9
20260904191020 75 0 0.9 5.2 0.00 0.36 0.10 89 1014.9
20260904190520 75 156 2.6 5.2 0.00 0.36 0.10 89 1015.0
20260904190034 75 209 0.0 5.2 0.00 0.36 0.10 92 1015.0
20260904185520 74 252 1.7 5.2 0.00 0.36 0.10 92 1015.0
20260904185016 74 0 1.7 5.2 0.00 0.36 0.10 93 1015.0
20260904184536 73 255 2.6 6.1 0.00 0.36 0.10 95 1015.1
20260904184018 73 165 1.7 6.1 0.00 0.36 0.10 96 1015.1
20260904183519 73 211 1.7 6.1 0.00 0.36 0.10 96 1015.1
20260904183039 73 222 1.7 6.1 0.00 0.36 0.10 97 1015.0
20260904182519 73 0 0.9 4.3 0.00 0.36 0.10 97 1015.1
20260904182023 73 245 0.0 6.1 0.00 0.36 0.10 97 1015.1
20260904181540 72 237 1.7 6.1 0.00 0.36 0.10 97 1015.1
20260904181020 72 223 1.7 6.1 0.00 0.36 0.10 97 1015.2
20260904180516 72 233 1.7 5.2 0.00 0.36 0.10 97 1015.4
20260904180033 73 0 0.0 5.2 0.00 0.36 0.10 97 1015.4
20260904175520 72 0 0.9 5.2 0.00 0.36 0.10 97 1015.5
20260904175019 72 169 0.9 6.1 0.00 0.36 0.10 97 1015.4
20260904174535 72 205 0.0 6.1 0.00 0.36 0.10 97 1015.4
20260904174021 72 193 0.9 6.1 0.00 0.36 0.10 97 1015.5
20260904173520 72 252 0.9 4.3 0.00 0.36 0.10 97 1015.4
20260904173038 72 181 1.7 4.3 0.00 0.36 0.10 97 1015.5
20260904172518 72 126 0.9 4.3 0.00 0.36 0.10 97 1015.5
20260904172016 71 0 0.9 4.3 0.00 0.36 0.10 97 1015.4
20260904171553 71 195 2.6 4.3 0.00 0.36 0.10 97 1015.4
20260904171018 71 177 1.7 4.3 0.00 0.36 0.10 97 1015.5
20260904170520 71 203 0.0 3.5 0.00 0.36 0.10 97 1015.4
20260904170040 71 160 0.0 3.5 0.00 0.36 0.10 97 1015.4
20260904165523 71 0 0.9 3.5 0.00 0.68 0.10 97 1015.4
20260904165021 71 210 0.0 1.7 0.00 0.68 0.10 97 1015.5
20260904164547 70 0 0.0 1.7 0.00 0.68 0.10 97 1015.6
20260904164019 70 0 0.0 1.7 0.00 0.68 0.10 97 1015.5
20260904163519 70 186 0.9 1.7 0.00 0.68 0.10 97 1015.7
20260904163038 70 0 0.0 2.6 0.00 0.68 0.10 97 1015.8
20260904162517 70 0 0.0 2.6 0.00 0.68 0.10 97 1015.8
20260904162018 70 0 0.0 2.6 0.00 0.68 0.10 97 1016.2
20260904161536 69 0 0.0 0.9 0.00 0.68 0.10 97 1016.5
20260904161018 69 0 0.0 1.7 0.00 0.68 0.10 97 1016.4
20260904160518 69 0 0.0 1.7 0.00 0.68 0.10 97 1016.4
20260904160040 69 0 0.0 1.7 0.00 0.68 0.10 97 1016.6
20260904155516 69 0 0.0 3.5 0.00 0.87 0.10 97 1016.5
20260904155019 69 0 0.9 3.5 0.00 0.87 0.10 97 1016.6
20260904154539 69 169 0.0 4.3 0.00 0.87 0.10 97 1016.9
20260904154021 69 228 0.0 4.3 0.01 0.87 0.10 97 1016.8
20260904153520 69 173 0.0 2.6 0.01 0.87 0.10 97 1017.1
20260904153037 68 0 0.0 3.5 0.01 0.87 0.10 97 1017.1
20260904152518 68 0 0.0 4.3 0.01 0.87 0.10 97 1017.2
20260904152018 68 0 0.9 4.3 0.02 0.87 0.10 97 1017.3
20260904151537 68 169 0.9 4.3 0.02 0.87 0.10 97 1017.2
20260904151016 68 164 0.0 4.3 0.03 0.87 0.10 97 1017.4
20260904150519 68 0 0.9 5.2 0.03 0.87 0.10 97 1017.3
20260904150039 68 0 0.9 6.1 0.04 0.87 0.10 97 1017.2
20260904145520 68 178 2.6 6.1 0.04 0.87 0.10 97 1017.0
20260904145021 67 174 3.5 6.1 0.05 0.87 0.10 97 1017.1
20260904144538 67 209 0.9 7.0 0.05 0.87 0.10 97 1017.3
20260904144018 67 142 2.6 7.0 0.04 0.86 0.09 97 1017.0
20260904143517 67 165 2.6 5.2 0.04 0.86 0.09 97 1016.7
20260904143036 67 167 2.6 5.2 0.04 0.86 0.09 97 1016.9
20260904142518 67 198 1.7 3.5 0.04 0.86 0.09 97 1016.8
20260904142019 67 0 0.9 3.5 0.03 0.85 0.08 97 1016.7
20260904141540 67 238 0.9 3.5 0.03 0.85 0.08 97 1016.8
20260904141017 67 209 0.0 2.6 0.02 0.84 0.07 97 1016.8
20260904140517 67 161 1.7 3.5 0.02 0.84 0.07 97 1016.8
20260904140039 67 168 0.9 3.5 0.02 0.83 0.06 97 1016.9